STARLINK-3297, 50159

Orbit data source: Space-Track

STARLINK-3297, 50159 is a payload satellite owned by SpaceX/Seattle (US) in LEO that was launched on Sat, 18 Dec 2021 UTC via an FALCON 9 launch vehicle from the Air Force Western Test Range (AFWTR). Payload-class satellites include a variety of spacecraft equipped with specific instruments for various scientific and technological missions. These include communications satellites like Starlink; space stations such as the ISS; scientific satellites like the Hubble; Earth observation satellites from companies like Planet Labs, Umbra, and HawkEye 360; GPS; miniature CubeSats for education and research; and military/defense satellites.

Loading next visibility...
Identifier
50159, 2021-125D
Orbit
LEO
Country
Flag of USUS
Related business
Manufacturer
SpaceX/Seattle
Mission
Operational Commercial Communications
Bus & Motor
STARLINK, Unknown motor
Mass
290 kg wet, ~270 kg dry
Launch date (UTC)
2021-12-18 (5 years ago)
Launch vehicle
FALCON 9
Launch site
Air Force Western Test Range (AFWTR)
Object type
Payload
Rocket body
Debris
Shape & HBR
Box + 1 Pan, 10.1 m
Radar Cross Section
13.562 m², Large (>1 m²)

Expand to show TLE details & history
Last TLE update: 5 hours ago

TLE from 5 hours ago
0 STARLINK-3297
1 50159U 21125D   26169.97647682  .00000486  00000-0  48623-4 0  9999
2 50159  53.1597 164.3307 0001201  81.8212 278.2915 15.08834118251744
Epoch: 2026-06-18T23:26Z
TLE epoch observation values (Epoch: 2026-06-18T23:26:07.597Z)
Latitude
-0.00006°
Longitude
-94.41308°
Altitude
540.533 km
Speed
7.593 km/s
True Right ascension
10h 57m 19s
True Declination
0° 00' 00"
Sunlit
Object was in daylight at epoch
Visualization orbit readout
Latitude
Unknown
Longitude
Unknown
Altitude
Unknown
Speed
Unknown
Apparent Right ascension
Unknown
Apparent Declination
Unknown
Sunlit
N/A
Visualization observer readout
Local Sidereal Time
15:35:57
Azimuth
Unknown
Elevation
Unknown
Doppler factor
Unknown
Orbital elements
Apogee altitude
540.846 km
Perigee altitude
539.185 km
Semi-major axis
6,918.153 km
Eccentricity
0.00012
Inclination
53.1597°
RAAN
164.3307°
Arg. of periapsis
81.8212°
True anomaly
278.27788°
Mean anomaly
278.2915°
Eccentric anomaly
278.28469°
Mean motion
3.77188 °/min
Orbital period
95.44 mins
BSTAR
0.000048623
Loading maneuver chart data...
Computing Atmospheric mass density...

Documentation

Showing up to 5 results
|